Temp
16 16 15 15 15 15 14 14 14 14 14 14 14 14 14 14 14 13 13 14 14 14 14 14 14 15 15 15 15 15 15 15 15 14 14 14 14 14 14 13 13 13 12 12 12 12 12 11 11 11 11 11 11 12 12 13 14 14 14 13 13 13 13 13 12 12 12 11 11
16 16 15 15 15 15 14 14 14 14 14 14 14 14 14 14 14 14 14 14 14 14 14 14 14 15 15 15 15 15 15 15 15 14 14 14 14 14 14 13 13 13 12 12 12 12 12 11 10 10 10 11 11 11 11 12 13 13 13 13 13 13 12 12 12 12 11 11 10
16 16 15 15 15 14 14 14 14 14 14 14 14 14 14 14 14 14 14 14 14 14 14 14 14 15 15 15 15 15 15 15 15 14 14 14 13 13 13 13 13 12 12 12 12 12 11 11 10 10 10 11 11 10 11 11 12 13 13 13 13 13 12 12 12 12 11 11 10
16 16 15 15 15 14 14 14 14 14 14 14 14 14 14 14 14 14 14 14 14 14 14 14 14 15 15 15 15 15 15 15 14 14 13 13 13 13 12 12 12 12 12 12 12 12 11 11 10 10 10 11 11 11 10 11 11 12 12 13 13 13 12 12 12 11 11 11 10
16 15 15 15 15 15 14 14 14 14 14 14 14 14 14 14 14 14 14 14 14 14 14 14 15 15 15 15 15 15 15 14 14 14 13 13 13 13 12 12 12 12 12 12 11 11 11 10 10 10 10 11 11 11 11 10 11 11 12 12 12 12 12 12 12 11 11 11 10
15 15 15 15 15 15 14 14 15 15 15 14 14 14 14 14 14 14 14 14 14 14 14 14 14 14 14 14 14 14 14 14 14 13 13 13 13 12 12 12 12 12 12 11 11 11 10 10 10 10 10 11 11 11 10 10 10 11 11 12 12 12 12 12 12 11 11 11 10
15 15 15 15 15 15 15 15 15 15 14 14 14 14 14 14 14 14 14 14 14 14 14 14 14 14 14 14 14 14 14 14 13 13 13 12 12 12 12 12 11 11 11 11 10 10 10 10 10 10 10 10 10 10 10 10 10 10 10 11 11 11 11 11 11 11 11 10 10
15 15 15 15 15 15 15 15 15 14 14 14 14 14 15 15 15 15 14 14 14 14 14 14 14 14 14 14 14 14 14 13 13 13 12 12 12 12 11 11 11 11 11 11 11 10 10 10 10 10 10 10 10 10 10 10 9 9 9 10 10 11 11 11 11 11 10 10 10
15 15 15 15 15 15 15 15 15 14 14 14 14 15 15 15 15 15 14 14 14 14 14 14 14 14 14 14 14 14 13 13 13 12 12 12 12 11 11 11 10 10 10 10 10 10 10 10 10 10 10 10 10 9 9 9 9 9 9 9 9 10 10 11 11 10 10 10 10
15 15 15 15 15 15 15 15 15 15 15 15 15 15 15 15 14 14 14 14 14 14 14 14 14 14 14 14 14 13 13 13 12 12 12 12 11 11 10 10 10 10 10 10 10 10 10 10 10 10 10 9 9 9 9 8 9 9 9 8 8 9 10 10 10 10 10 10 9
15 15 15 15 14 14 14 14 14 14 14 14 14 14 14 14 14 14 14 14 14 14 14 14 14 14 14 14 13 13 13 12 12 12 11 11 11 10 10 10 9 9 10 10 10 10 9 9 9 9 9 9 9 8 8 8 9 9 9 8 8 8 9 10 10 10 10 9 9
15 15 15 15 15 14 14 14 14 14 14 14 14 14 14 14 14 14 14 14 14 14 14 14 14 14 14 14 13 13 13 12 12 12 11 11 11 10 10 9 9 9 9 9 9 9 9 9 9 9 9 9 9 8 9 9 9 9 8 8 7 7 8 9 10 10 10 9 9
15 15 15 14 14 14 14 14 14 14 14 14 14 14 14 14 14 14 14 14 14 14 14 14 14 14 14 13 13 13 12 12 12 12 11 11 11 10 10 9 9 9 9 9 9 9 9 9 9 9 9 9 8 8 9 9 9 9 8 7 7 7 7 8 9 9 9 9 9
15 15 14 14 14 14 14 14 14 14 14 14 14 14 14 14 14 14 14 14 14 14 14 14 13 13 13 13 13 13 12 12 12 11 11 11 11 10 10 10 9 9 9 9 9 9 9 8 8 8 8 8 8 8 8 9 9 9 8 8 7 7 7 7 7 8 8 8 8
14 14 14 14 14 14 14 14 14 14 14 14 14 14 14 14 14 14 14 14 14 14 13 13 13 13 13 13 13 12 12 12 11 11 11 11 11 10 10 10 9 9 9 9 8 8 8 8 8 8 8 8 8 8 8 8 8 8 8 7 7 7 6 6 6 6 6 7 8
14 14 14 14 14 14 14 14 14 14 14 14 14 14 14 14 14 14 14 14 13 13 13 13 13 13 13 13 12 12 12 11 11 11 11 11 11 10 10 10 9 9 9 8 8 8 8 8 8 8 8 8 8 8 7 7 7 7 7 7 6 6 6 6 6 6 6 7 8
14 14 14 14 14 14 14 14 14 14 14 14 14 14 14 14 14 14 14 14 13 13 13 14 13 13 13 13 12 12 12 11 11 11 11 11 11 10 10 10 9 9 9 8 8 8 8 8 8 8 7 7 7 7 7 7 7 6 6 6 5 5 5 5 6 6 6 7 8
13 14 14 14 14 14 14 14 14 14 14 14 14 14 14 14 14 14 14 14 14 14 14 14 13 13 13 12 12 12 12 12 11 11 11 11 10 10 10 9 9 9 9 8 8 8 7 7 7 7 7 7 7 7 7 7 6 6 5 5 5 5 5 5 6 6 7 8 8
13 13 14 14 14 14 14 14 14 14 14 14 14 14 14 14 14 14 14 14 14 14 14 14 13 13 13 12 12 12 12 12 12 11 11 10 10 10 10 9 9 9 9 8 8 8 7 7 7 7 7 6 6 6 6 6 6 6 5 5 5 5 5 6 7 7 7 8 8
13 13 14 14 14 14 14 14 14 14 14 14 14 14 14 14 14 14 14 14 14 14 14 13 13 13 13 12 12 12 12 12 11 11 10 10 10 10 9 9 9 9 8 8 8 7 7 7 7 7 6 6 6 6 6 6 6 6 5 5 5 5 6 6 7 7 8 8 8
13 14 14 14 14 14 14 13 13 14 14 14 14 14 14 14 14 14 14 14 14 13 13 13 13 13 13 12 12 12 12 11 11 10 10 10 10 9 9 9 9 9 8 8 8 7 7 7 7 6 6 6 6 6 6 6 6 6 5 5 5 6 6 7 7 7 7 8 8
13 13 13 13 13 13 13 13 13 13 13 13 13 13 13 13 13 13 13 13 13 13 13 13 13 12 12 12 12 12 11 11 10 10 10 10 9 9 9 9 9 9 8 8 8 7 7 7 7 6 6 6 6 6 6 6 6 6 5 5 6 6 6 6 7 7 7 8 8
13 13 13 13 13 13 13 13 13 13 13 13 13 13 13 13 13 13 13 13 13 13 13 12 12 12 12 12 11 11 11 11 10 10 10 10 9 9 9 9 9 9 8 8 8 7 7 7 6 6 6 6 6 6 6 6 6 6 6 6 6 6 6 6 6 6 7 7 8
13 13 13 13 13 13 13 13 13 13 13 13 13 13 13 13 13 13 13 12 12 12 12 12 12 12 11 11 11 11 10 10 10 10 9 9 9 9 9 9 9 9 8 8 8 7 7 7 6 6 6 6 6 5 5 6 6 6 6 6 6 6 6 6 6 6 7 7 7
13 13 13 13 13 13 13 13 13 13 13 13 13 13 13 13 12 12 12 12 12 12 12 12 11 11 11 11 11 10 10 10 10 9 9 9 9 9 9 9 9 8 8 8 8 7 7 7 6 6 6 6 5 5 5 5 5 5 6 6 6 6 6 6 6 6 7 7 7
13 13 13 13 12 12 12 12 12 12 12 12 12 12 12 12 12 12 12 12 12 12 11 11 11 11 11 11 10 10 10 10 9 9 9 9 9 9 9 9 9 8 8 8 8 7 7 6 6 6 6 5 5 5 5 5 5 5 6 6 6 6 6 6 6 6 7 7 7
13 13 12 12 12 12 12 12 12 12 12 12 12 12 12 12 12 12 12 11 11 11 11 11 11 11 10 10 10 10 10 9 9 9 9 9 9 9 9 9 8 8 8 8 8 7 7 6 6 6 5 5 5 5 5 5 5 5 6 6 6 6 6 6 7 7 7 7 8
13 13 12 12 12 12 12 12 12 12 12 12 12 12 12 12 11 11 11 11 11 11 11 11 10 10 10 10 10 10 9 9 9 9 9 9 9 8 8 8 8 8 8 8 7 7 6 6 6 5 5 5 5 5 5 5 5 5 5 5 5 6 6 6 7 7 7 8 8
13 13 12 12 12 12 12 12 12 12 12 12 12 11 11 11 11 11 11 11 10 10 10 10 10 10 10 10 9 9 9 9 9 9 9 8 8 8 8 8 8 8 8 8 7 7 6 6 5 5 5 5 5 5 5 5 5 5 5 5 5 6 6 7 7 7 8 8 8
13 13 12 12 12 12 12 12 12 12 11 11 11 11 11 11 11 10 10 10 10 10 10 10 10 10 9 9 9 9 9 9 9 9 8 8 8 8 8 8 8 8 8 7 7 6 6 5 5 4 4 4 5 5 5 5 5 5 5 5 6 6 7 7 7 8 8 8 8
12 12 12 12 12 12 12 12 11 11 11 11 11 11 10 10 10 10 10 10 10 10 9 9 9 9 9 9 9 9 9 8 8 8 8 8 8 8 8 8 8 8 7 7 6 6 6 5 5 4 4 4 4 5 5 5 5 5 5 5 6 6 7 7 8 8 8 8 8
12 12 12 12 11 11 11 11 11 11 11 10 10 10 10 10 10 10 10 9 9 9 9 9 9 9 9 9 8 8 8 8 8 8 8 8 8 8 7 7 7 7 7 7 6 6 5 5 5 4 4 4 4 5 5 5 5 5 5 6 6 7 7 7 8 8 8 8 8
11 11 11 11 11 11 11 11 10 10 10 10 10 10 10 10 9 9 9 9 9 9 9 9 9 9 8 8 8 8 8 8 8 8 8 7 7 7 7 7 7 7 7 6 6 5 5 5 5 4 4 4 4 5 5 5 5 5 5 6 6 6 7 7 8 8 8 7 7
11 11 11 11 11 11 11 10 10 10 10 10 10 9 9 9 9 9 9 9 9 9 8 8 8 8 8 8 8 8 8 7 7 7 7 7 7 7 7 7 7 7 6 6 6 5 5 5 5 4 4 4 4 4 5 5 5 5 5 6 6 6 7 7 7 7 7 6 6
11 11 11 11 11 10 10 10 10 10 10 10 9 9 9 9 9 9 9 9 8 8 8 8 8 8 7 7 7 7 7 7 7 7 7 7 7 7 7 7 6 6 6 6 5 5 5 5 5 5 4 4 4 4 5 5 5 5 6 6 6 6 6 6 6 6 6 6 6
11 11 11 10 10 10 10 10 10 10 9 9 9 9 9 9 9 8 8 8 8 8 8 8 7 7 7 7 7 7 7 7 7 7 6 6 6 6 6 6 6 6 6 6 5 5 5 5 5 5 5 4 4 4 4 5 5 5 5 6 6 6 6 6 6 6 6 6 6
11 11 10 10 10 10 10 10 10 9 9 9 9 9 9 8 8 8 8 8 8 8 7 7 7 7 7 7 7 7 6 6 6 6 6 6 6 6 6 6 6 6 5 5 5 5 5 5 4 5 5 4 4 4 4 5 5 5 5 5 6 6 6 6 6 6 6 6 6
10 10 10 10 10 10 9 9 9 9 9 9 9 8 8 8 8 8 7 7 7 7 7 7 7 7 6 6 6 6 6 6 6 6 6 6 6 6 6 5 5 5 5 5 5 5 5 4 5 5 5 5 4 4 4 5 5 5 5 5 6 6 6 6 6 6 6 5 5
10 10 10 10 10 9 9 9 9 9 8 8 8 8 8 8 7 7 7 7 7 7 7 6 6 6 6 6 6 6 5 5 5 5 5 5 5 5 5 5 5 5 5 5 5 5 5 4 5 5 5 5 5 4 4 5 5 5 5 5 5 6 6 6 5 5 5 5 5
10 10 10 9 9 9 9 8 8 8 8 8 8 7 7 7 7 7 7 6 6 6 6 6 6 5 5 5 5 5 5 5 5 5 5 5 5 5 5 5 5 5 5 5 5 4 4 4 5 5 5 5 5 5 5 5 5 5 5 5 5 5 5 5 5 5 5 5 5
9 9 9 9 9 9 8 8 8 8 8 7 7 7 7 7 6 6 6 6 6 6 6 5 5 5 5 5 5 5 5 5 5 5 5 5 5 5 5 5 5 5 4 4 4 4 4 4 4 4 5 5 5 5 5 5 5 5 5 5 5 5 5 5 5 5 5 4 4
Height
761 762 763 764 766 767 768 770 771 773 774 775 777 778 779 781 782 783 784 785 786 787 788 789 790 791 792 793 794 795 796 797 798 799 800 801 802 803 804 805 806 806 808 809 810 811 812 813 815 816 818 818 819 820 821 821 822 823 823 824 825 826 827 828 828 829 830 831 831
760 761 762 764 765 766 768 769 771 772 773 775 776 777 778 779 781 782 783 784 785 786 787 788 789 790 791 793 793 794 795 796 797 798 799 800 801 802 803 803 804 805 806 808 808 809 811 812 813 815 817 818 818 819 820 821 822 822 823 823 824 825 826 827 828 828 829 830 830
759 760 761 763 764 765 767 768 770 771 773 774 775 776 778 778 780 781 782 783 784 785 786 787 788 789 790 791 792 793 794 795 796 797 798 798 799 800 801 802 803 804 805 806 807 808 809 810 812 814 815 816 817 818 819 821 821 822 822 823 823 824 825 826 827 828 828 829 829
758 759 760 762 763 764 766 767 769 770 772 773 774 776 777 778 779 780 781 782 783 784 785 786 787 788 789 790 791 792 793 794 795 796 797 798 798 799 800 801 802 803 804 805 806 807 808 809 811 812 813 815 816 817 818 819 820 821 821 822 822 823 824 825 826 826 827 828 828
757 758 759 760 762 763 764 766 768 769 771 772 774 775 776 777 778 779 780 781 782 783 784 785 786 787 788 789 790 791 792 793 794 795 796 797 797 798 799 799 800 802 803 803 804 805 807 808 809 811 812 813 814 815 816 817 819 820 820 821 821 822 823 824 824 825 826 826 827
755 757 758 759 761 762 764 765 767 768 770 771 773 774 775 776 777 778 779 780 781 781 783 784 785 786 788 788 789 790 791 792 793 793 794 795 796 797 797 798 799 800 801 802 803 803 805 806 808 809 810 811 812 813 813 815 817 818 820 820 820 821 822 823 823 824 824 825 825
754 756 757 759 760 762 763 764 766 768 769 770 771 773 773 775 776 777 778 778 779 781 782 783 784 785 786 787 788 789 790 791 792 793 793 794 795 795 796 797 798 799 800 801 801 802 803 804 806 807 808 809 810 811 811 813 815 817 818 819 820 820 821 822 822 823 823 824 824
754 755 756 758 759 761 762 763 765 767 768 769 770 771 772 773 774 775 776 777 778 780 781 782 783 784 785 786 787 788 789 790 791 792 792 793 793 794 796 797 798 798 798 799 800 801 802 803 804 805 806 807 808 808 809 810 813 815 817 818 819 820 820 821 821 822 823 823 824
753 755 756 757 758 760 761 763 764 765 767 768 769 770 771 772 773 774 775 776 778 779 780 781 782 783 784 785 786 787 788 789 790 790 791 792 793 793 795 795 796 797 797 798 799 800 801 802 803 804 805 806 806 807 808 809 811 813 814 816 818 818 819 820 821 822 823 823 824
753 754 755 757 758 759 761 762 763 764 766 767 768 769 770 771 772 773 775 776 777 778 779 780 781 783 783 784 785 786 787 788 789 789 790 791 792 793 793 794 794 795 796 797 798 799 800 801 802 803 803 804 805 806 807 808 810 812 813 814 815 817 818 819 820 821 822 823 823
752 753 754 756 757 759 760 762 763 764 765 766 768 768 770 771 772 773 774 775 777 778 778 779 781 782 783 783 784 785 786 787 788 788 789 790 791 792 792 793 793 794 795 796 797 798 798 799 800 801 802 803 803 804 806 808 809 810 811 812 813 815 817 819 820 821 821 822 823
751 752 754 755 757 758 759 761 762 763 765 766 767 768 769 770 771 773 774 775 776 777 778 779 780 781 782 783 784 784 785 786 787 788 788 789 790 791 792 792 793 794 794 795 796 797 798 798 799 800 801 801 802 803 804 806 807 808 809 810 812 814 816 818 819 820 821 822 822
750 752 753 754 756 757 758 760 761 763 764 765 766 767 768 770 771 772 773 774 775 776 777 778 779 780 781 782 783 784 785 785 786 787 788 788 789 790 791 792 792 793 793 794 795 795 796 797 798 799 799 800 800 801 803 804 805 806 807 808 810 812 814 816 818 819 820 821 822
750 751 753 754 755 757 758 759 761 762 763 764 765 767 768 769 770 771 772 773 774 775 777 778 779 780 781 782 782 783 784 785 785 786 787 788 788 789 790 791 791 792 793 793 793 794 795 796 797 798 798 799 799 800 801 802 803 804 805 806 808 809 811 813 815 817 818 820 821
749 750 752 753 755 756 757 758 760 761 762 763 765 766 767 768 769 770 772 773 774 775 776 777 778 779 780 781 782 783 783 784 784 785 786 787 788 788 789 789 790 791 791 792 793 793 794 795 796 797 797 798 798 799 800 801 802 803 803 804 805 807 808 810 812 814 816 818 819
749 750 751 753 754 755 757 758 759 760 762 763 764 765 766 768 769 770 771 772 773 774 776 777 778 778 779 780 781 782 782 783 783 784 785 786 787 787 788 788 789 790 790 791 792 793 794 794 795 796 797 797 798 798 799 800 801 802 802 803 804 805 807 808 810 812 814 816 817
748 749 751 752 753 755 756 757 758 760 761 762 763 764 766 767 768 769 770 772 773 774 775 776 777 778 778 779 780 781 781 782 783 783 784 785 785 786 787 788 788 789 789 790 791 792 793 794 795 795 796 797 798 798 799 799 800 801 802 803 804 805 806 808 809 811 813 814 815
748 749 750 752 753 754 755 757 758 759 760 761 763 763 765 766 767 768 770 771 772 773 774 775 776 777 777 778 779 780 781 781 782 783 783 784 784 785 786 787 788 788 789 790 790 791 792 793 794 795 796 796 797 798 798 799 800 800 801 803 804 805 806 808 809 810 812 813 813
747 748 750 751 752 753 755 756 757 758 759 761 762 763 764 765 767 768 769 771 772 773 773 774 775 776 777 778 778 779 780 780 781 782 783 783 784 785 786 786 787 788 788 789 790 791 791 792 793 794 795 796 796 797 798 799 799 800 801 803 804 805 806 808 808 809 810 811 813
747 748 749 750 752 753 754 755 757 758 759 760 761 763 764 765 767 768 769 770 771 772 773 773 774 775 776 777 778 778 779 780 781 781 782 783 783 784 785 786 786 787 788 788 789 790 791 791 792 793 794 795 796 796 797 798 799 800 801 803 804 805 806 807 808 808 809 811 812
746 748 749 750 751 753 754 755 757 758 759 760 761 762 764 765 766 767 768 769 770 771 772 773 774 775 775 776 777 778 778 779 780 781 782 782 783 784 784 785 786 787 787 788 789 789 790 790 791 792 793 794 795 796 797 798 798 800 801 802 803 804 805 806 807 808 809 810 812
746 748 749 750 751 753 754 755 756 758 758 760 761 762 763 765 766 767 768 768 769 770 771 772 773 774 775 776 776 777 778 779 780 780 781 782 783 783 784 785 785 786 787 787 788 788 789 790 790 791 792 793 794 795 796 797 798 799 800 801 802 803 804 805 806 807 808 810 811
746 748 749 750 751 753 754 755 756 757 758 760 761 762 763 764 765 766 767 768 769 770 771 772 773 773 774 775 776 777 778 778 779 780 781 782 782 783 783 784 784 785 786 786 787 788 788 789 790 790 791 792 793 794 795 796 797 798 799 800 801 802 803 803 805 806 808 809 810
746 747 749 750 751 753 753 755 756 757 758 759 761 762 763 764 765 766 767 768 768 769 770 771 772 773 774 775 776 777 777 778 779 780 780 781 782 782 783 783 784 784 785 786 786 787 788 788 789 790 791 792 793 793 794 795 796 797 798 800 800 801 802 803 804 805 807 808 809
746 747 748 750 751 752 753 754 756 757 758 759 760 761 762 763 764 765 766 767 768 769 770 771 772 773 773 774 775 776 777 778 778 779 780 780 781 782 782 783 783 784 785 785 786 787 787 788 789 789 790 791 792 793 794 795 796 797 798 799 800 800 801 802 803 805 806 807 808
746 747 748 750 751 752 753 754 755 757 758 759 760 761 762 763 764 765 766 767 768 768 769 770 771 772 773 774 775 776 776 777 778 778 779 780 781 781 782 783 783 784 784 785 786 787 787 788 788 789 790 791 792 793 793 794 795 796 797 798 799 800 801 802 803 804 806 807 808
746 747 748 750 751 752 753 754 755 756 758 758 759 760 762 763 763 764 765 766 767 768 769 770 771 772 773 773 774 775 776 777 778 778 779 780 780 781 782 782 783 783 784 785 786 786 787 788 788 789 790 790 791 792 793 793 794 796 797 798 798 799 801 802 803 804 805 806 807
746 747 748 749 751 752 753 754 755 756 757 758 759 760 761 762 763 764 765 766 767 768 769 770 770 771 772 773 774 775 775 776 777 778 778 779 780 781 781 782 783 783 784 785 786 786 787 788 788 789 789 790 791 791 792 793 794 795 796 797 798 799 800 802 803 804 805 806 807
746 747 748 749 751 752 753 754 755 756 757 758 759 760 761 762 763 764 765 766 767 768 768 769 770 771 772 773 773 774 775 776 777 778 778 779 780 780 781 782 783 783 784 785 786 786 787 788 788 788 789 789 790 791 792 792 793 794 795 797 798 799 800 801 802 803 804 805 806
746 747 748 749 750 752 753 753 755 756 757 758 759 760 761 762 763 764 765 766 766 767 768 769 770 771 772 773 773 774 775 776 777 777 778 779 779 780 781 782 783 783 784 785 786 786 787 788 788 788 789 789 789 790 791 792 793 794 795 796 798 798 800 801 802 803 803 804 805
746 747 748 749 750 752 753 753 755 756 757 758 759 760 761 762 763 763 764 765 766 767 768 769 770 771 772 773 773 774 775 776 777 777 778 778 779 780 781 782 782 783 784 785 785 786 787 787 788 788 789 789 789 790 791 792 793 794 795 796 797 798 799 800 801 802 803 803 804
746 748 748 749 750 752 753 753 755 756 757 758 759 760 761 762 763 763 764 765 766 767 768 769 770 771 772 772 773 774 775 776 776 777 778 778 779 780 781 782 782 783 784 784 785 786 786 787 788 788 789 789 789 790 791 792 793 793 794 796 797 798 799 799 800 801 802 802 803
746 748 748 749 750 752 753 754 755 756 757 758 759 760 761 762 763 763 764 765 766 767 768 769 770 771 771 772 773 774 775 775 776 777 778 778 779 780 780 781 782 783 783 784 785 785 786 787 788 788 789 789 789 790 791 792 792 793 794 795 796 797 798 799 799 800 801 802 802
746 748 748 749 751 752 753 754 755 756 757 758 759 760 761 762 763 763 764 765 766 767 768 769 770 771 772 772 773 774 775 775 776 777 778 778 779 780 780 781 782 783 783 784 784 785 786 787 787 788 789 789 789 789 790 791 792 793 793 794 795 796 797 798 799 799 800 801 802
747 748 748 750 751 752 753 754 755 756 757 758 759 760 761 762 763 764 765 766 766 767 768 769 770 771 772 772 773 774 774 775 776 777 777 778 779 779 780 781 781 782 783 783 784 785 785 786 787 788 788 789 789 789 790 791 792 793 793 794 795 796 797 797 798 799 800 800 801
747 748 749 750 751 752 753 754 755 756 757 758 759 760 761 762 763 764 765 766 767 768 768 769 770 771 771 772 773 773 774 775 776 776 777 778 778 779 780 780 781 782 782 783 784 784 785 786 787 788 788 788 788 789 790 791 792 792 793 794 794 795 796 797 798 798 799 800 800
747 748 749 750 751 752 753 754 755 756 757 758 759 760 761 762 763 764 765 766 767 768 768 769 770 770 771 772 773 773 774 775 776 776 777 778 778 779 779 780 781 781 782 783 783 784 785 786 786 787 788 788 788 789 790 791 791 792 793 794 794 795 796 797 798 798 799 799 800
747 748 749 750 751 753 753 755 756 757 758 758 759 761 762 762 763 764 765 766 767 768 768 769 770 770 771 772 773 773 774 775 775 776 777 777 778 778 779 780 780 781 782 782 783 784 784 785 786 787 788 788 788 789 790 791 792 792 793 794 794 795 796 797 797 798 798 799 799
748 749 750 751 752 753 754 755 756 757 758 759 760 761 762 763 763 764 765 766 767 768 768 769 770 770 771 772 773 773 774 774 775 776 777 777 778 778 779 779 780 781 781 782 783 783 784 785 786 787 788 788 789 789 790 791 792 793 793 794 794 795 796 796 797 797 798 798 798
748 749 750 751 752 753 754 755 756 757 758 759 760 761 762 763 763 764 765 766 767 768 768 769 770 770 771 772 773 773 774 774 775 776 776 777 778 778 779 779 780 781 781 782 783 784 785 786 787 787 788 788 789 790 791 791 792 793 793 794 794 795 795 796 796 797 797 797 798
748 749 750 752 753 753 754 755 756 757 758 759 760 761 762 763 763 764 765 766 767 768 768 769 770 770 771 772 773 773 774 774 775 776 776 777 778 778 779 779 780 781 782 782 783 784 785 786 787 788 788 789 789 790 791 791 792 792 793 793 794 794 795 795 796 796 796 797 797
Wind_Speed
27 26 27 27 28 29 29 28 28 28 29 29 29 29 29 29 29 29 30 30 31 32 33 33 34 34 34 35 36 36 37 37 38 38 38 38 38 38 38 38 38 37 35 32 29 28 29 32 34 34 33 31 30 31 32 31 30 29 27 26 25 24 22 21 20 19 17 16 15
27 26 26 27 27 28 28 27 27 28 28 29 29 29 29 29 29 29 29 30 31 32 32 33 33 33 34 34 34 35 36 37 38 38 38 38 38 37 37 38 38 37 34 31 29 28 29 32 33 34 33 31 30 30 31 31 30 29 28 27 25 24 22 21 20 18 16 15 14
27 27 26 26 26 27 27 27 27 27 28 28 28 29 29 29 29 29 29 30 31 31 32 32 32 33 33 33 33 34 35 36 37 37 37 37 37 36 37 37 37 36 33 30 29 28 29 31 32 33 32 32 30 30 30 30 29 28 28 27 26 24 23 21 20 18 16 15 14
27 27 26 26 26 27 27 27 28 28 28 28 28 28 28 28 29 29 29 30 30 30 31 31 32 32 32 32 33 33 34 35 36 36 36 36 36 35 36 36 35 34 32 30 29 29 29 30 32 32 32 31 30 29 29 30 29 29 28 27 26 24 23 22 20 18 17 16 15
27 27 27 27 27 27 28 28 29 29 29 28 28 28 28 28 28 28 29 29 29 30 31 31 31 31 31 31 32 32 33 33 34 35 35 35 35 35 35 35 34 32 31 30 29 29 29 30 31 32 32 31 30 29 29 29 29 29 28 27 26 25 23 22 21 19 18 17 17
27 27 27 27 27 27 27 28 29 29 29 28 28 28 28 28 28 28 29 29 30 30 30 29 29 30 30 31 31 32 32 33 33 33 34 34 34 35 35 34 32 31 30 29 29 29 30 30 31 32 31 31 30 30 29 29 28 28 28 27 26 25 24 23 21 20 19 18 17
28 27 27 27 27 27 27 28 28 28 28 28 29 29 29 29 29 29 30 30 30 29 29 28 29 29 30 30 31 32 32 32 32 32 32 33 33 33 33 31 30 29 29 29 30 30 30 31 31 31 31 31 31 30 30 29 28 27 27 27 27 26 24 23 22 21 20 19 18
27 27 27 27 27 27 27 28 28 28 28 29 29 30 30 30 30 30 30 30 29 28 28 28 29 29 30 30 30 31 31 31 31 31 31 32 32 31 30 29 29 29 30 30 30 30 30 30 31 31 31 31 31 31 30 29 28 27 27 27 27 26 25 23 22 20 19 18 17
26 26 26 26 27 27 27 27 28 28 28 29 29 30 30 30 31 30 30 29 28 28 28 28 28 28 28 29 29 30 30 30 30 30 30 30 30 29 29 28 29 30 30 31 30 30 30 30 30 31 31 31 31 31 30 29 27 27 27 27 27 26 25 23 21 20 19 18 17
25 26 26 26 26 26 27 27 27 28 28 29 29 29 30 30 30 29 29 28 28 28 28 28 27 27 27 28 28 29 29 29 29 29 29 29 28 28 28 29 29 29 30 30 29 29 29 30 30 30 31 31 31 30 29 28 27 27 27 27 27 26 25 23 21 19 18 17 16
26 26 26 26 26 26 26 27 27 27 28 28 28 28 29 29 28 28 28 27 27 27 27 27 27 26 26 27 27 28 28 28 28 28 27 27 27 27 27 28 28 28 29 29 29 29 29 29 30 30 30 31 31 30 29 28 28 27 27 27 26 25 23 22 20 19 18 17 16
26 26 26 26 26 26 26 27 27 27 27 27 27 27 27 27 27 27 27 27 27 27 26 26 26 26 25 26 26 26 27 27 27 27 27 26 26 27 27 27 27 28 28 29 29 29 29 29 29 30 30 31 31 30 29 29 28 28 27 27 25 24 22 20 19 18 16 16 15
26 26 26 26 26 26 26 26 27 27 27 26 26 26 26 26 26 27 27 26 26 26 25 25 25 25 25 24 25 25 26 26 26 26 26 26 26 26 26 26 26 27 28 29 29 29 29 29 29 30 30 31 31 31 30 29 29 28 28 27 25 24 22 20 18 16 15 14 15
25 26 26 26 26 26 26 26 26 26 26 26 26 26 26 26 26 26 26 25 25 25 24 24 24 23 23 23 24 24 25 25 25 25 25 25 25 25 25 25 26 27 27 28 29 29 29 29 29 30 30 30 30 30 30 29 29 29 28 28 27 26 24 22 20 17 15 15 16
25 25 26 26 26 26 26 26 26 26 26 26 26 25 25 25 25 25 25 24 24 24 23 23 22 22 22 22 23 24 24 24 24 24 23 24 24 24 25 25 26 26 27 27 28 28 29 29 29 29 29 30 30 30 29 29 28 28 29 29 28 27 25 23 21 18 16 16 18
24 25 25 26 26 26 26 26 26 26 26 26 26 25 25 24 24 24 24 23 23 22 22 21 20 21 21 22 23 23 24 24 23 23 22 23 23 24 24 24 25 25 26 26 27 27 27 28 28 29 29 29 29 29 28 28 28 28 28 28 28 26 25 23 21 19 18 18 20
24 24 25 25 26 26 26 26 26 26 26 26 25 25 25 24 24 23 23 22 22 21 20 19 20 21 22 22 22 23 23 22 22 22 22 22 23 23 23 24 24 24 25 25 25 26 26 26 27 28 28 28 28 28 28 27 27 27 27 27 26 24 23 22 20 19 19 20 22
23 24 24 25 25 26 26 26 26 26 26 26 25 25 24 24 23 23 22 21 20 19 19 19 20 21 21 21 21 21 21 21 21 21 21 22 22 22 22 22 23 23 24 24 24 25 25 25 26 26 27 27 27 27 26 26 26 26 26 25 23 21 20 19 18 18 20 22 23
23 24 24 24 25 25 26 26 26 26 25 25 25 24 24 23 22 21 20 19 18 18 18 20 20 21 20 20 20 20 20 20 21 21 21 21 21 21 21 21 22 22 23 23 23 24 24 25 25 25 25 25 25 25 25 25 25 25 24 22 20 19 18 17 17 18 21 23 23
23 23 24 24 24 24 25 25 25 25 25 24 24 24 23 22 21 20 19 19 18 18 19 20 20 20 20 19 20 20 20 20 20 20 20 20 20 20 21 21 21 21 22 22 22 23 23 24 24 24 24 24 24 24 24 24 24 24 22 20 18 17 16 17 18 20 22 22 21
22 22 23 23 23 24 24 24 24 24 24 23 23 23 22 21 20 19 19 19 19 19 19 19 19 19 19 19 20 20 20 20 20 20 19 20 20 20 20 20 20 20 21 21 21 22 23 23 23 23 23 23 23 23 23 23 23 22 21 18 17 16 16 17 19 21 22 21 19
21 21 21 22 22 22 22 23 23 23 22 22 22 21 21 20 20 20 19 19 19 19 19 18 18 19 19 19 19 19 20 20 19 19 19 19 19 19 19 19 20 20 20 20 21 21 22 22 23 23 22 22 22 21 21 21 22 21 20 18 17 17 17 19 21 22 22 20 19
20 20 20 21 21 21 21 21 21 21 21 21 20 20 20 19 20 19 19 19 19 18 18 18 18 18 18 18 19 19 19 18 18 18 18 18 18 19 19 19 19 19 19 20 20 21 21 21 22 22 22 21 21 20 20 20 20 20 19 18 17 18 19 20 22 22 21 20 18
18 19 19 19 19 20 20 20 20 20 20 20 20 19 19 19 19 19 19 19 18 18 18 18 17 17 17 17 17 18 17 17 17 17 17 17 18 18 19 19 19 19 19 19 19 20 20 21 21 21 21 20 19 19 18 18 19 19 18 18 18 19 20 22 22 22 20 19 17
17 17 17 18 18 18 18 18 18 19 19 19 18 18 18 18 18 18 18 18 18 17 17 17 17 17 17 16 16 16 16 16 16 16 16 17 17 17 18 18 18 18 18 18 18 18 19 19 20 20 19 19 18 17 17 17 17 18 18 18 19 21 22 22 21 20 19 17 16
15 15 15 16 16 16 17 17 17 17 17 17 17 17 17 17 17 17 17 17 17 17 17 16 16 16 16 15 15 15 15 15 15 15 15 16 16 16 16 17 17 17 17 17 17 17 17 18 18 18 17 17 17 16 16 16 17 18 19 20 21 22 22 22 20 19 18 16 15
13 14 14 14 14 15 15 15 15 15 15 16 16 16 16 16 16 16 16 16 16 16 15 15 15 15 14 14 14 14 14 14 14 14 14 15 15 15 15 15 15 15 15 15 15 15 16 16 16 16 16 15 15 15 15 16 16 18 20 21 22 22 21 20 19 18 16 15 14
12 12 12 12 13 13 13 13 14 14 14 14 15 15 14 14 15 15 15 15 15 14 14 14 14 13 13 13 13 13 13 13 13 13 13 13 14 14 14 14 14 14 14 14 14 14 14 14 14 14 14 14 14 14 14 15 17 18 20 22 22 21 20 19 18 16 15 13 13
10 10 11 11 11 12 12 12 12 12 13 13 13 13 13 13 13 13 13 13 13 13 13 13 13 12 12 12 12 12 11 11 12 12 12 12 13 13 13 13 13 13 13 12 12 12 12 12 12 12 12 12 13 13 14 15 17 19 20 21 21 20 19 17 16 14 13 12 12
9 9 10 10 10 10 11 11 11 11 11 11 11 11 11 11 11 11 11 12 12 12 12 11 11 11 11 11 11 10 10 10 11 11 11 11 12 12 12 12 12 12 11 11 11 11 11 11 11 11 12 12 12 12 13 15 17 19 20 20 20 19 17 16 14 13 12 12 13
9 9 9 9 9 9 9 9 9 9 9 9 9 9 9 9 10 10 10 10 10 10 9 9 10 10 10 10 9 9 10 10 10 10 10 11 11 11 11 11 11 10 10 10 10 10 10 9 9 10 11 12 13 13 13 15 17 18 19 19 19 17 16 14 13 13 13 14 14
9 8 8 8 8 8 9 9 8 8 8 8 8 8 8 8 8 8 8 8 8 8 8 8 8 9 9 9 9 9 9 9 9 9 10 10 10 10 10 10 10 9 9 10 9 9 8 8 8 10 11 13 13 12 12 13 15 16 17 17 17 16 14 13 13 13 14 15 15
9 8 8 8 8 8 8 8 8 8 7 7 7 7 7 7 7 7 7 7 7 7 7 7 7 7 8 8 8 8 8 8 8 9 9 9 9 9 9 9 8 8 9 9 8 8 7 7 8 10 11 12 13 12 11 11 13 14 15 15 15 14 13 13 13 14 15 15 15
9 9 8 8 8 8 8 8 8 7 7 7 6 6 6 6 6 6 6 6 6 6 6 6 6 6 6 6 7 7 7 7 7 8 8 8 8 8 8 8 8 8 8 8 7 7 6 7 8 10 11 12 12 12 10 10 10 11 12 12 12 12 12 12 12 13 13 12 12
9 9 9 8 8 8 8 7 7 7 7 6 6 5 5 4 4 5 4 4 4 4 4 4 4 4 5 5 5 5 6 6 7 7 7 7 7 7 7 7 7 7 7 7 6 6 6 7 8 10 11 12 12 11 9 8 8 8 8 9 9 9 10 10 10 10 10 9 9
9 9 9 9 8 8 8 7 7 7 6 6 5 5 5 4 4 3 3 3 3 3 3 3 3 4 4 4 4 5 5 5 6 6 6 6 6 6 6 6 6 6 6 6 5 5 6 7 8 9 11 12 12 11 9 7 7 6 6 6 6 7 7 7 7 7 7 8 8
9 9 9 9 9 8 8 7 7 7 6 6 5 5 4 4 4 3 3 2 2 2 2 2 2 3 3 3 4 4 4 4 4 4 5 4 5 5 5 5 5 5 4 4 4 5 6 8 8 10 11 12 12 10 9 7 6 6 5 5 5 5 5 5 5 6 6 7 7
9 9 8 9 9 9 8 8 7 7 6 6 5 5 5 4 4 4 3 3 2 1 1 1 1 1 2 2 2 2 2 2 3 3 3 3 3 3 3 4 3 3 3 3 3 5 7 8 8 10 11 12 11 10 8 7 6 5 5 4 4 4 5 5 5 6 7 7 8
9 9 8 8 9 9 9 8 7 7 7 6 6 6 5 5 4 4 4 3 3 2 2 1 1 1 0 0 1 1 1 1 1 1 2 2 2 2 2 2 2 1 1 1 3 5 7 8 8 9 10 11 10 9 8 7 6 5 5 5 5 5 5 6 6 7 8 8 9
10 9 9 9 9 9 9 9 8 8 8 7 7 7 6 6 5 5 5 4 4 4 3 3 3 3 2 2 2 1 1 1 1 1 2 2 2 2 2 2 1 1 1 2 4 6 8 9 8 8 9 9 8 8 7 6 6 6 6 6 6 6 6 7 7 8 9 9 10
11 10 10 9 10 10 10 10 10 9 9 8 8 8 8 7 7 6 6 5 5 5 5 5 4 4 4 4 4 3 3 3 3 3 3 3 3 3 3 3 3 2 2 3 4 7 9 9 8 7 7 7 7 7 7 6 6 6 6 6 6 6 7 7 8 8 9 9 9
Wind_Direction
204 201 200 199 199 198 197 197 198 198 198 197 196 197 198 200 201 203 206 208 210 212 215 218 221 223 224 225 225 226 227 227 227 227 228 230 231 232 233 233 232 231 230 233 236 239 241 239 234 232 233 234 235 235 233 230 227 226 226 227 228 229 229 230 231 231 231 231 231
204 202 201 200 200 199 198 197 197 198 199 200 201 201 202 203 204 206 208 211 214 216 218 220 222 223 224 226 227 228 228 228 228 228 228 229 231 232 233 233 233 232 232 234 238 240 240 238 233 231 232 234 235 236 235 234 231 228 227 228 229 229 230 231 231 231 231 230 229
204 203 201 199 198 197 196 195 196 198 200 202 203 204 205 206 207 209 212 214 217 219 220 221 223 225 226 228 229 230 230 230 230 229 229 229 230 231 232 233 233 233 234 236 239 240 239 237 232 231 232 234 235 236 237 237 235 232 229 229 230 230 231 231 231 230 228 227 226
204 202 200 198 197 197 197 197 198 200 202 203 204 206 207 208 210 212 215 217 218 220 222 224 225 227 228 229 230 231 232 232 232 230 229 229 229 230 231 232 232 233 235 238 240 240 238 235 231 230 232 234 235 235 237 239 239 236 233 231 231 231 231 231 231 229 226 225 224
204 202 200 199 199 199 200 201 202 203 204 205 205 206 207 209 211 214 216 218 219 222 225 226 227 228 229 230 231 232 233 233 232 231 230 230 230 231 232 233 233 235 237 239 239 238 235 233 231 230 232 234 235 236 237 238 240 239 237 234 232 232 232 232 231 228 226 224 223
203 202 202 201 201 201 202 203 205 206 206 206 205 206 207 209 212 214 217 220 222 225 226 227 228 229 230 231 232 233 234 234 233 232 231 231 231 232 233 233 234 236 237 238 237 236 234 231 230 231 233 234 235 236 237 237 238 240 239 237 234 233 233 232 230 228 226 224 222
204 202 201 201 201 202 203 204 206 207 206 206 206 207 209 212 215 217 220 223 224 225 226 226 227 229 230 231 232 233 233 233 233 232 232 232 232 232 233 233 234 234 235 235 236 235 234 232 230 231 232 234 235 235 236 235 235 237 239 239 238 236 233 232 231 228 226 224 222
204 203 202 202 202 203 204 205 206 206 205 206 208 210 213 216 218 220 222 222 223 225 227 228 228 229 231 231 232 233 233 233 233 233 233 233 233 233 233 233 232 232 233 234 235 235 235 234 232 231 232 233 233 235 234 233 231 232 235 238 239 238 235 232 230 228 227 225 224
202 202 202 202 203 204 205 206 207 207 207 209 211 214 217 219 220 220 220 221 224 227 229 229 230 231 231 233 234 234 234 234 233 233 233 234 234 233 232 230 229 229 231 233 234 235 236 235 233 232 232 233 233 233 233 231 228 228 231 234 237 238 236 232 229 227 227 227 227
201 201 201 201 203 204 205 207 208 210 210 212 214 216 218 219 220 221 222 225 228 229 230 230 231 231 232 233 235 235 235 234 234 233 233 233 233 231 229 228 227 227 229 232 234 234 235 234 233 232 233 234 233 232 231 229 228 228 229 231 234 235 235 232 228 226 226 228 229
201 201 201 202 203 204 205 206 208 210 212 214 215 216 218 219 221 223 226 228 228 229 230 232 232 232 233 234 235 235 235 234 234 234 233 233 232 230 229 228 228 229 230 233 233 234 233 233 232 232 232 233 232 231 230 230 229 229 229 230 231 232 233 232 229 226 226 228 230
203 203 203 204 204 205 205 206 208 210 212 214 216 217 219 221 223 225 226 227 228 230 233 234 234 234 235 236 237 236 235 235 235 235 235 234 233 232 231 231 231 232 233 234 235 234 233 232 231 231 231 232 232 232 231 231 230 229 228 228 228 228 228 228 227 227 227 230 232
205 204 204 204 204 205 205 207 208 210 212 214 217 219 221 223 224 225 226 227 230 232 233 234 235 236 237 238 239 238 237 237 237 237 237 236 235 235 234 234 235 235 235 235 236 235 233 232 231 230 230 231 231 232 232 232 230 229 226 225 223 222 221 222 223 226 230 234 237
206 205 204 204 204 205 205 206 208 210 212 215 218 220 221 222 224 226 227 229 231 232 233 233 235 237 239 241 241 240 238 237 237 237 237 238 238 238 238 238 238 238 237 237 237 235 234 233 232 232 231 231 232 232 232 232 231 229 226 223 219 217 215 215 217 220 226 234 239
204 205 205 204 204 204 205 206 208 211 213 215 218 220 221 222 224 226 228 229 231 232 233 234 236 239 241 242 241 240 239 237 237 237 238 239 241 241 241 241 241 240 239 238 237 236 235 235 235 234 234 234 234 233 232 231 230 229 226 222 218 215 212 211 211 213 218 227 234
203 204 204 204 204 204 205 207 209 212 214 216 218 220 221 222 224 226 227 228 230 232 234 236 239 241 241 240 239 238 238 238 238 238 239 240 242 243 243 242 241 241 240 239 238 237 237 237 237 237 237 236 236 235 234 232 230 227 224 221 217 214 211 209 208 208 211 221 230
201 203 204 204 204 205 206 208 211 213 215 217 219 221 222 223 225 226 227 228 230 232 235 239 240 239 238 238 238 238 239 239 240 241 241 242 243 243 242 241 241 242 242 240 239 238 237 237 237 238 238 238 238 237 236 234 230 226 222 219 216 214 211 210 207 205 210 220 228
201 202 204 205 206 207 209 210 212 214 216 218 220 222 223 224 225 226 228 230 232 235 238 239 239 238 237 238 240 241 243 243 244 244 244 244 244 244 243 242 242 243 243 242 241 239 238 237 237 237 237 237 237 237 237 235 232 228 224 220 217 214 212 209 206 207 213 222 227
201 203 204 206 208 209 211 213 215 217 218 220 222 223 224 225 227 228 230 232 235 238 239 238 237 238 240 242 244 246 247 248 247 246 245 244 243 243 243 243 243 244 245 244 242 242 241 240 239 238 237 236 236 237 237 237 235 232 227 222 218 215 211 208 207 212 220 226 228
202 204 206 208 210 211 213 215 216 218 220 222 223 224 224 227 229 230 232 234 236 238 238 237 237 239 242 244 245 247 248 249 247 245 243 242 242 243 244 244 244 246 246 245 244 244 244 243 242 240 239 237 236 236 237 237 236 233 228 223 218 213 209 209 214 221 227 229 228
204 206 208 210 211 212 213 214 216 218 220 222 223 224 226 228 230 232 234 235 237 237 237 238 240 241 243 244 245 245 245 246 244 243 242 243 244 245 246 247 248 249 249 248 247 246 246 245 244 242 240 239 237 237 238 238 237 233 227 221 215 211 210 216 223 229 232 231 227
204 206 208 209 210 211 212 214 215 218 220 222 224 225 227 229 230 232 234 236 237 238 239 241 242 243 244 245 245 244 244 244 244 244 246 247 248 249 249 249 250 251 251 250 249 248 247 247 245 244 242 240 239 240 240 240 237 232 225 217 211 210 213 221 228 232 233 231 227
204 206 207 208 209 210 212 213 216 218 220 222 224 226 227 229 230 232 233 235 236 239 240 242 243 243 245 246 246 245 245 245 246 247 249 249 249 249 249 250 251 252 252 251 251 249 247 246 245 245 244 243 242 243 243 242 237 230 221 213 209 210 217 224 230 232 231 229 226
204 206 207 208 210 211 213 215 217 219 221 223 225 226 227 229 230 231 233 235 237 239 240 241 243 244 244 246 246 246 247 247 248 248 248 249 248 248 248 250 251 253 254 255 254 252 250 247 245 245 246 246 246 245 245 242 236 227 218 211 210 214 221 227 231 231 229 227 224
203 205 207 209 210 212 214 216 217 220 222 224 225 227 228 229 230 231 233 235 236 238 239 241 242 244 245 245 245 247 248 250 250 249 248 247 248 248 249 250 252 254 255 256 256 254 252 250 249 249 249 250 249 247 244 240 233 225 217 213 214 220 226 230 231 230 228 225 222
200 203 206 208 210 212 214 216 218 220 223 224 226 227 228 229 230 232 233 235 236 237 238 240 242 244 245 245 245 246 248 250 251 251 250 249 249 250 250 252 253 255 257 257 256 253 251 251 252 253 254 253 250 246 241 236 230 224 220 219 221 226 230 233 232 230 226 223 220
196 199 203 206 208 210 212 215 218 220 222 223 225 226 227 228 230 231 233 234 235 237 239 241 242 244 245 246 246 246 247 248 249 250 251 252 252 253 254 256 257 259 261 260 257 254 252 252 254 256 256 254 250 246 240 235 229 225 224 225 228 231 234 236 233 229 224 220 218
191 195 198 201 204 207 210 213 215 217 220 222 224 225 227 228 229 231 232 234 235 237 238 240 242 244 245 246 246 247 248 249 249 250 252 254 256 258 259 260 261 264 265 263 259 256 255 255 257 258 257 255 250 246 242 237 232 229 228 229 231 234 236 236 233 228 221 216 214
186 189 192 196 199 202 205 208 211 214 217 220 222 224 225 227 229 231 232 233 235 236 238 238 241 242 244 244 246 247 248 249 250 252 253 255 258 259 261 262 264 266 267 264 261 260 259 259 257 255 254 254 251 247 243 239 236 234 232 233 234 235 235 233 230 224 217 212 210
179 182 185 189 193 196 199 203 207 210 214 217 219 221 223 225 227 228 230 232 234 236 237 239 241 242 243 245 247 247 248 249 252 254 256 257 258 259 260 263 266 267 267 264 263 263 263 260 253 246 244 248 251 249 246 242 239 237 236 236 235 235 233 230 225 218 211 206 206
172 174 178 181 186 190 193 196 200 204 208 211 214 216 219 220 222 225 227 230 233 235 238 240 242 245 247 249 250 250 250 252 254 256 257 259 259 260 262 265 268 268 266 264 264 266 265 258 245 233 231 239 248 251 249 244 241 239 238 237 236 235 231 227 220 212 206 205 207
164 167 170 174 179 183 186 188 192 196 200 203 206 209 213 216 218 222 226 229 232 234 237 240 243 246 249 250 251 252 253 253 255 257 259 260 261 263 266 269 270 268 266 264 265 265 261 250 233 221 220 231 244 251 251 246 243 240 239 238 236 234 231 226 219 213 211 212 217
160 162 165 168 172 176 179 182 185 188 192 195 199 203 208 211 215 219 224 227 231 234 238 243 247 248 250 251 253 255 255 256 258 260 262 262 264 266 269 272 271 269 266 264 264 262 253 237 222 213 213 224 239 248 250 246 242 239 237 236 234 233 230 227 223 222 223 227 233
158 159 161 163 167 171 174 177 180 183 185 188 192 197 202 206 210 215 219 225 230 235 241 247 252 255 258 260 261 261 261 262 262 262 263 264 266 269 272 273 271 269 267 264 262 255 240 224 214 207 208 218 233 243 246 243 239 235 233 232 231 230 230 229 230 232 237 243 249
157 157 158 159 163 166 169 171 174 177 180 184 186 189 193 199 206 211 217 225 230 236 240 244 247 252 254 257 260 262 264 264 264 265 266 268 269 272 274 275 273 270 268 265 258 244 227 214 208 202 203 213 228 237 240 238 233 230 228 227 227 228 230 232 237 242 249 256 263
155 154 154 154 157 161 164 167 168 170 174 177 179 180 182 185 191 200 209 216 225 232 236 237 240 242 245 247 252 256 260 264 268 271 273 274 275 278 281 279 275 273 271 265 253 233 215 205 201 197 199 210 223 231 235 234 230 227 224 223 224 227 232 238 246 253 260 266 270
153 150 149 149 152 155 158 160 161 162 164 165 167 169 170 171 172 175 180 186 197 206 215 225 235 240 245 252 257 261 264 271 275 278 280 280 283 289 292 288 282 279 275 265 245 220 203 195 192 193 198 209 219 227 230 231 232 232 232 233 236 241 248 255 262 268 273 277 282
147 144 142 142 145 148 151 152 152 152 152 151 153 153 153 154 156 158 157 155 160 166 168 176 213 238 257 270 272 271 273 278 286 289 290 293 301 310 313 305 295 287 277 259 230 204 191 184 185 191 199 208 217 224 229 233 239 244 252 259 266 272 277 282 284 286 289 294 299
140 137 135 134 136 139 141 142 140 139 137 136 137 138 138 139 141 140 136 133 125 117 109 107 110 106 79 3 305 294 290 302 312 316 319 329 345 354 349 339 326 307 273 232 204 189 180 175 179 190 201 210 217 224 231 239 247 258 270 280 287 292 295 297 299 302 304 307 310
133 130 127 126 128 130 131 131 130 128 126 125 126 127 128 128 127 126 125 123 117 108 100 96 96 94 92 85 70 56 52 47 40 36 36 37 43 44 42 37 44 63 119 162 176 175 172 170 175 189 202 210 217 224 233 242 252 263 274 284 292 298 301 303 305 307 309 312 314
128 125 122 121 121 122 123 124 124 122 120 118 118 117 117 117 119 120 119 118 114 108 102 98 97 96 94 87 79 74 72 70 69 67 66 67 67 66 66 66 73 87 108 135 159 168 169 168 173 185 200 211 217 225 234 244 253 263 274 285 294 302 306 308 308 309 310 312 312